Location: S�tio Afonso Gruber
(26.1760°S, 49.5250°W)
Time: 14:52:28
(UTC+00:00)

GPS 2-12 Rocket1 - Pass Details

Date: 07 June 2020
Orbit: 586 x 652 km, 20.0° (Epoch: 07 July)

Event Time Altitude Azimuth Distance (km) Brightness Sun altitude
Exits shadow 09:18:04 - 286° (WNW) 2,254 5.5 -9.6°
Reaches altitude 10° 09:18:50 10° 289° (WNW) 1,981 5.2 -9.5°
Maximum altitude 09:23:08 37° 356° (N) 974 4.3 -8.6°
Drops below altitude 10° 09:27:30 10° 64° (ENE) 2,018 7.5 -7.7°
Sets 09:30:02 0° 72° (ENE) 2,935 9.2 -7.1°
